FW8542 Weather Reports


time (UTC)temp
F
wind
direction
speed
knots
gust
knots
rain 1hr
in
rain 24hr
in
rain mn
in
humidity
%
barometer
mb
20260502210006 58 0 0.0 0.0 0.00 0.00 0.00 70 1006.4
20260502205407 58 0 0.0 0.0 0.00 0.00 0.00 70 1006.4
20260502204527 58 1 0.0 0.9 0.00 0.00 0.00 70 1006.5
20260502203627 58 0 0.0 0.0 0.00 0.00 0.00 69 1006.6
20260502202727 58 0 0.0 0.0 0.00 0.00 0.00 69 1006.6
20260502201806 58 0 0.0 0.0 0.00 0.00 0.00 69 1006.5
20260502200906 58 47 0.0 0.9 0.00 0.00 0.00 69 1006.5
20260502200007 58 0 0.0 0.0 0.00 0.00 0.00 68 1006.5
20260502195405 59 0 0.0 0.0 0.00 0.00 0.00 68 1006.5
20260502194505 59 171 0.0 0.9 0.00 0.00 0.00 67 1006.6
20260502193605 58 0 0.0 0.0 0.00 0.00 0.00 67 1006.5
20260502192706 59 0 0.0 0.0 0.00 0.00 0.00 66 1006.4
20260502191805 59 0 0.0 0.0 0.00 0.00 0.00 67 1006.4
20260502190905 59 0 0.0 0.0 0.00 0.00 0.00 66 1006.3
20260502190005 60 0 0.0 0.0 0.00 0.00 0.00 66 1006.4
20260502185405 60 0 0.0 0.0 0.00 0.00 0.00 66 1006.4
20260502184505 60 0 0.0 0.0 0.00 0.00 0.00 65 1006.5
20260502183605 60 0 0.0 0.0 0.00 0.00 0.00 65 1006.5
20260502182705 60 0 0.0 0.0 0.00 0.00 0.00 64 1006.3
20260502181805 61 0 0.0 0.0 0.00 0.00 0.00 63 1006.4
20260502180905 61 0 0.0 0.0 0.00 0.00 0.00 62 1006.4
20260502163605 64 323 0.0 2.6 0.00 0.00 0.00 57 1006.8
20260502162726 64 307 0.9 2.6 0.00 0.00 0.00 58 1006.9
20260502161805 64 319 0.9 3.5 0.00 0.00 0.00 58 1006.9
20260502160905 64 322 0.9 2.6 0.00 0.00 0.00 59 1007.0
20260502151826 64 276 1.7 6.1 0.00 0.00 0.00 56 1007.6
20260502150926 65 313 0.9 4.3 0.00 0.00 0.00 58 1007.6
20260502123604 65 324 1.7 7.0 0.00 0.00 0.00 60 1008.5
20260502122704 65 318 1.7 5.2 0.00 0.00 0.00 57 1008.6
20260502121804 66 308 0.9 6.1 0.00 0.00 0.00 57 1008.5
20260502120904 64 330 1.7 7.0 0.00 0.00 0.00 62 1008.4
20260502115404 64 317 1.7 4.3 0.00 0.00 0.00 61 1008.5
20260502114504 64 301 1.7 7.0 0.00 0.00 0.00 59 1008.5
20260502113604 63 301 0.9 3.5 0.00 0.00 0.00 63 1008.5
20260502112705 62 301 0.9 3.5 0.00 0.00 0.00 63 1008.7
20260502111804 61 303 0.9 5.2 0.00 0.00 0.00 64 1008.7
20260502110904 61 293 1.7 5.2 0.00 0.00 0.00 64 1008.8
20260502110004 61 292 1.7 6.1 0.00 0.00 0.00 61 1008.9
20260502105404 63 283 1.7 6.1 0.00 0.00 0.00 62 1008.8
20260502104504 63 262 1.7 7.8 0.00 0.00 0.00 61 1008.8
20260502103604 62 271 1.7 6.1 0.00 0.00 0.00 65 1008.7
20260502102726 60 313 1.7 6.1 0.00 0.00 0.00 65 1008.7
20260502101804 63 307 1.7 5.2 0.00 0.00 0.00 61 1008.8
20260502100904 64 294 1.7 4.3 0.00 0.00 0.00 62 1008.8
20260502090904 60 298 1.7 7.8 0.00 0.00 0.00 67 1009.2
20260502070903 56 303 0.9 4.3 0.00 0.00 0.00 75 1009.2
20260502070005 56 233 0.9 2.6 0.00 0.00 0.00 77 1009.2
20260502065403 55 221 0.9 2.6 0.00 0.00 0.00 78 1009.2
20260502064504 54 206 0.9 2.6 0.00 0.00 0.00 80 1009.4
20260502063603 53 250 0.0 2.6 0.00 0.00 0.00 80 1009.3
20260502062704 52 202 0.9 2.6 0.00 0.00 0.00 82 1009.3
20260502061803 51 179 0.0 2.6 0.00 0.00 0.00 83 1009.3
20260502060903 50 0 0.0 0.0 0.00 0.00 0.00 83 1009.3
20260502060003 50 0 0.0 0.0 0.00 0.00 0.00 83 1009.3
20260502055403 49 0 0.0 0.0 0.00 0.00 0.00 83 1009.3
20260502054524 49 0 0.0 0.0 0.00 0.00 0.00 82 1009.4
20260502053603 50 0 0.0 0.0 0.00 0.00 0.00 82 1009.4
20260502052725 50 0 0.0 0.0 0.00 0.00 0.00 83 1009.5
20260502051803 50 0 0.0 0.0 0.00 0.00 0.00 83 1009.5
20260502050924 49 0 0.0 0.0 0.00 0.00 0.00 83 1009.5
20260502050024 49 0 0.0 0.0 0.00 0.00 0.00 83 1009.4
20260502045403 49 0 0.0 0.0 0.00 0.00 0.00 83 1009.5
20260502044504 49 0 0.0 0.0 0.00 0.00 0.00 84 1009.4
20260502043603 49 0 0.0 0.0 0.00 0.00 0.00 83 1009.4
20260502042705 49 0 0.0 0.0 0.00 0.00 0.00 83 1009.4
20260502041805 49 0 0.0 0.0 0.00 0.00 0.00 82 1009.4
20260502040926 50 0 0.0 0.0 0.00 0.00 0.00 82 1009.5
20260502040027 50 0 0.0 0.0 0.00 0.00 0.00 82 1009.5
20260502035405 50 0 0.0 0.0 0.00 0.00 0.00 82 1009.4
20260502034505 50 0 0.0 0.0 0.00 0.00 0.00 81 1009.5
20260502033626 51 206 0.0 1.7 0.00 0.00 0.00 81 1009.6
20260502032705 51 0 0.0 0.0 0.00 0.00 0.00 80 1009.6
20260502031805 51 0 0.0 0.0 0.00 0.00 0.00 80 1009.5
20260502030905 51 0 0.0 0.0 0.00 0.00 0.00 80 1009.5
20260502030005 51 325 0.0 1.7 0.00 0.00 0.00 81 1009.6
20260502025405 51 307 0.0 1.7 0.00 0.00 0.00 81 1009.7
20260502024505 51 319 0.0 2.6 0.00 0.00 0.00 81 1009.6
20260502023605 50 311 0.0 2.6 0.00 0.00 0.00 81 1009.7
20260502022705 51 328 0.0 1.7 0.00 0.00 0.00 80 1009.8
20260502021805 51 326 0.0 2.6 0.00 0.00 0.00 80 1009.9
20260502020927 51 311 0.0 1.7 0.00 0.00 0.00 80 1010.0
20260502020005 51 320 0.0 1.7 0.00 0.00 0.00 80 1010.1
20260502015405 52 322 0.0 1.7 0.00 0.00 0.00 80 1010.1
20260502014526 52 0 0.0 0.0 0.00 0.00 0.00 79 1010.1
20260502013605 52 0 0.0 0.0 0.00 0.00 0.00 78 1010.2
20260502012705 52 331 0.0 3.5 0.00 0.00 0.00 78 1010.3
20260502011826 53 309 0.0 2.6 0.00 0.00 0.00 78 1010.3
20260502010905 53 318 0.9 3.5 0.00 0.00 0.00 79 1010.4
20260502010026 53 324 0.9 4.3 0.00 0.00 0.00 79 1010.5
20260502005405 53 321 0.0 4.3 0.00 0.00 0.00 79 1010.5
20260502004527 53 335 0.0 0.9 0.00 0.00 0.00 79 1010.7
20260502003626 53 0 0.0 0.0 0.00 0.00 0.00 80 1010.6
20260502002726 54 0 0.0 0.0 0.00 0.00 0.00 81 1010.6
20260502001805 54 0 0.0 0.0 0.00 0.00 0.00 81 1010.6
20260502000905 54 0 0.0 0.0 0.00 0.00 0.00 81 1010.6
20260502000005 54 300 0.0 0.9 0.00 0.00 0.00 81 1010.7
20260501235406 54 300 0.0 0.9 0.00 0.00 0.00 81 1010.7
20260501234505 54 328 0.0 0.9 0.00 0.00 0.00 81 1010.8
20260501233605 54 321 0.0 0.9 0.00 0.00 0.00 82 1010.7
20260501232726 55 318 0.0 0.9 0.00 0.00 0.00 81 1010.8
20260501231804 55 316 0.0 1.7 0.00 0.00 0.00 80 1010.7
20260501230904 55 316 0.0 1.7 0.00 0.00 0.00 80 1010.8
20260501230005 55 327 0.0 4.3 0.00 0.00 0.00 79 1010.9
20260501225404 56 328 0.9 4.3 0.00 0.00 0.00 79 1011.0
20260501224505 56 322 0.0 4.3 0.00 0.00 0.00 80 1010.7
20260501223605 56 318 0.9 2.6 0.00 0.00 0.00 80 1010.7
20260501222705 56 324 0.0 2.6 0.00 0.00 0.00 80 1010.8
20260501221804 56 315 0.0 2.6 0.00 0.00 0.00 79 1010.8
20260501220905 56 329 0.9 4.3 0.00 0.00 0.00 79 1010.8
20260501220025 56 320 0.9 4.3 0.00 0.00 0.00 78 1010.7
20260501215404 56 319 0.9 3.5 0.00 0.00 0.00 78 1010.8
20260501214504 56 315 0.9 3.5 0.00 0.00 0.00 77 1010.9
20260501213604 57 317 0.0 2.6 0.00 0.00 0.00 76 1010.8
20260501212704 57 319 0.9 4.3 0.00 0.00 0.00 75 1010.8
20260501211804 57 323 0.9 4.3 0.00 0.00 0.00 74 1011.0
20260501210904 57 317 0.0 3.5 0.00 0.00 0.00 72 1011.0